Regional Weather Roundup
Issued by NWS Sterling, VA

Home | Current Version | Previous Version | Graphics & Text | Print | Product List | Glossary On
Versions: 1 2 3 4 5 6 7 8 9 10 11 12 13 14 15 16 17 18 19 20 21 22 23 24 25 26 27 28 29 30 31 32 33 34 35 36 37 38 39 40 41 42 43 44 45 46 47 48 49 50
729
ASUS41 KLWX 300511
RWRLWX

REGIONAL WEATHER ROUNDUP
NATIONAL WEATHER SERVICE BALTIMORE MD/WASHINGTON DC
100 AM EDT THU MAR 30 2017

Note: "FAIR" indicates few or no clouds below 12,000 feet
with no significant weather and/or obstructions to visibility.
 TC=TEMPERATURE CELSIUS

 * =Non NWS site. Station does not report precipitation (e.g. rain,
    snow, etc.), thunder, or fog.

DCZ001-MDZ009-015-VAZ040>042-051-053>054-300600-
WASHINGTON METRO

CITY           SKY/WX    TMP DP  RH WIND       PRES   REMARKS
WASHINGTON NAT CLEAR     52  34  50 NE6       30.20S
DULLES         CLEAR     48  32  53 NE6       30.19S
ANDREWS AFB    CLEAR     47  30  51 NE5       30.18S
FT BELVOIR     CLEAR     52  30  43 CALM      30.19S
QUANTICO       CLEAR     53  40  61 E9        30.20S
COLLEGE PARK*  CLEAR     49  29  46 N5        30.19F
LEESBURG*      CLEAR     50  36  57 NE6       30.21S
MANASSAS*      CLEAR     46  36  68 CALM      30.19S

$$

MDZ006>007-011-014-300600-
BALTIMORE METRO

CITY           SKY/WX    TMP DP  RH WIND       PRES   REMARKS
BWI AIRPORT    PTCLDY    48  29  47 NE8       30.20R
MD SCIENCE CTR   N/A     51  27  39 MISG      30.21R
MARTIN STATE   CLOUDY    48  32  53 CALM      30.22R
ANNAPOLIS      CLEAR     51  35  54 NE6       30.18F
FORT MEADE*    PTCLDY    45  30  57 N3        30.22F

$$

MDZ012-015-019>023-300600-
MARYLAND EASTERN SHORE

CITY           SKY/WX    TMP DP  RH WIND       PRES   REMARKS
OCEAN CITY     CLEAR     46  37  71 NE7       30.19S
SALISBURY      CLEAR     45  33  63 NE6       30.18S
BAY BRIDGE AP* CLEAR     48  30  49 NE9       30.19S
CAMBRIDGE*     CLEAR     50  30  46 NE6G12    30.19R
EASTON*        CLEAR     48  30  50 E8        30.22F

$$

MDZ017>025-300600-
SOUTHERN MARYLAND

CITY           SKY/WX    TMP DP  RH WIND       PRES   REMARKS
PATUXENT RIVER CLEAR     46  40  79 NE9       30.18S
ST INIGOES     NOT AVBL
LEONARDTOWN*   CLEAR     46  34  61 CALM      30.19S

$$

MDZ003>005-300600-
NORTH CENTRAL MARYLAND

CITY           SKY/WX    TMP DP  RH WIND       PRES   REMARKS
FREDERICK*     CLEAR     43  36  75 CALM      30.23S
HAGERSTOWN APT PTCLDY    47  29  49 NE3       30.18F
WESTMINSTER*   CLEAR    N/A N/A N/A E5        30.19S

$$

MDZ501>502-300600-
WESTERN MARYLAND

CITY           SKY/WX    TMP DP  RH WIND       PRES   REMARKS
OAKLAND*       NOT AVBL
CUMBERLAND*    CLEAR     50  32  50 NE3       30.20S

$$

VAZ025>031-300600-
SHENANDOAH VALLEY

CITY           SKY/WX    TMP DP  RH WIND       PRES   REMARKS
WINCHESTER*    CLEAR     41  34  75 CALM      30.18S
FRONT ROYAL*   CLEAR     50  34  53 E7        30.17R
LURAY*         CLEAR     48  39  71 NE3       30.17R
NEW MARKET*    NOT AVBL
STAUNTON*      CLOUDY    49  40  71 CALM      30.17S
WAYNESBORO*    NOT AVBL

$$

WVZ021-048>050-054>055-300600-
EASTERN WEST VIRGINIA PANHANDLE

CITY           SKY/WX    TMP DP  RH WIND       PRES   REMARKS
MARTINSBURG    CLEAR     45  32  60 CALM      30.18S
PETERSBURG*    CLEAR     44  39  85 CALM      30.16S

$$

VAZ036>039-050-300600-
CENTRAL FOOTHILLS

CITY           SKY/WX    TMP DP  RH WIND       PRES   REMARKS
CHARLOTTESVILL PTCLDY    54  37  52 E7        30.17R
CULPEPER*      CLEAR     42  38  87 CALM      30.20S
ORANGE*        MOCLDY    45  39  81 CALM      30.19R
GORDONSVILLE*  NOT AVBL
WARRENTON*     CLEAR     47  35  63 NE5       30.18F

$$

VAZ055>057-300600-
NORTH AND CENTRAL PIEDMONT

CITY           SKY/WX    TMP DP  RH WIND       PRES   REMARKS
FREDERICKSBRG* CLEAR     46  40  78 CALM      30.19R
STAFFORD*      CLEAR     46  36  69 CALM      30.23R

$$

NCZ024-NYZ072-PAZ021-071-VAZ022-071-300600-
OTHER REGIONAL OBSERVATIONS

CITY           SKY/WX    TMP DP  RH WIND       PRES   REMARKS
NEW YORK CITY  PTCLDY    42  22  44 N9G20     30.25S
PHILADELPHIA   PTCLDY    46  25  43 N18       30.22F
PITTSBURGH     CLOUDY    48  29  47 E5        30.11F
ROANOKE        CLOUDY    61  43  51 SE9       30.15R
RICHMOND       PTCLDY    48  43  82 E3        30.17R
RALEIGH        PTCLDY    60  52  74 SE8       30.12R

$$

ANZ530>537-300600-
MARINE OBSERVATIONS

STATION/POSITION TIME  TEMP    WIND        PRES
                       AIR SEA DIR/SP/G
                 (UTC) (F)     (DEG/KT/KT) (MB)
THOMAS PT LIGHT  0500   50 48   60/  9/  9   N/A
BALT KEY BRIDGE  0448   50      70/  5/  7 1022.8R
COVE POINT       0448   51      50/  6/  8 1022.7F
LEWISETTA        0448   53 54  110/  9/ 11 1021.6F
SOLOMONS ISLAND  0448   51 49   40/  4/  6   N/A
PINEY POINT      0448          120/  5/  5   N/A

$$





USA.gov is the U.S. government's official web portal to all federal, state and local government web resources and services.